カタログに戻る

STARLINK-5395

運用中通信VLEO
NORAD 54831·PAYLOAD·🇺🇸 United States

打ち上げ Dec 28, 2022 から Cape Canaveral Space Force Station

Loading…

次のパス (今後24時間)

TLE

最新Source: CelesTrak SupGP

元期: Sep 15, 2026, 02:19 UTC

1 54831C 22177M   26258.09701389  .00036264  00000+0  13138-2 0  2586
2 54831  42.9998 146.3682 0001251 253.0850  10.4080 15.27554280    19

AllMySatでSTARLINK-5395をリアルタイム追跡

Download on the App Store